This demonstration page uses our WeatherBlox Daily Observations layout. Learn more.

Left ArrowRight Arrow

36.17497, -115.13722

Hourly Observations for March 17, 2019

Temp ( °F °C ) Dew Point ( °F °C ) Humidity (%) Winds ( mph kmh ) Pressure ( in mb ) Visibility ( mi km ) Precip ( " mm )
12:53 am 00:53 Clear 58 14.4 24 -4.4 27 27 ESE 3 6 30.15 1021 10 16 0.00 0.00
1:53 am 01:53 Clear 54 12.2 24 -4.4 31 31 NW 6 9 30.16 1021 10 16 0.00 0.00
2:53 am 02:53 Clear 53 11.7 26 -3.3 35 35 Calm 30.15 1021 10 16 0.00 0.00
3:53 am 03:53 Clear 50 10 28 -2.2 43 43 Calm 30.15 1021 10 16 0.00 0.00
4:53 am 04:53 Clear 48 8.9 28 -2.2 46 46 W 5 7 30.16 1021 10 16 0.00 0.00
5:53 am 05:53 Clear 50 10 27 -2.8 41 41 WNW 6 9 30.17 1022 10 16 0.00 0.00
6:53 am 06:53 Sunny 49 9.4 28 -2.2 44 44 SW 3 6 30.19 1022 10 16 0.00 0.00
7:53 am 07:53 Sunny 52 11.1 28 -2.2 40 40 NNW 5 7 30.21 1023 10 16 0.00 0.00
8:53 am 08:53 Sunny 58 14.4 28 -2.2 32 32 NW 5 7 30.21 1023 10 16 0.00 0.00
9:53 am 09:53 Sunny 63 17.2 26 -3.3 25 25 N 5 7 30.21 1023 10 16 0.00 0.00
10:53 am 10:53 Sunny 65 18.3 26 -3.3 23 23 S 6 9 30.20 1023 10 16 0.00 0.00
11:53 am 11:53 Sunny 67 19.4 24 -4.4 20 20 ESE 7 11 30.17 1022 10 16 0.00 0.00
12:53 pm 12:53 Sunny 69 20.6 24 -4.4 18 18 Calm 30.15 1021 10 16 0.00 0.00
1:53 pm 13:53 Sunny 71 21.7 24 -4.4 17 17 VRB 3 6 30.12 1020 10 16 0.00 0.00
2:53 pm 14:53 Sunny 73 22.8 20 -6.7 13 13 SSE 8 13 30.09 1019 10 16 0.00 0.00
3:53 pm 15:53 Sunny 74 23.3 21 -6.1 14 14 Calm 30.07 1018 10 16 0.00 0.00
4:53 pm 16:53 Sunny 73 22.8 22 -5.6 15 15 SSW 6 9 30.06 1018 10 16 0.00 0.00
5:53 pm 17:53 Sunny 72 22.2 22 -5.6 15 15 E 7 11 30.05 1018 10 16 0.00 0.00
6:53 pm 18:53 Clear 70 21.1 23 -5 17 17 E 5 7 30.06 1018 10 16 0.00 0.00
7:53 pm 19:53 Clear 68 20 25 -3.9 20 20 ENE 5 7 30.06 1018 10 16 0.00 0.00
8:53 pm 20:53 Clear 65 18.3 27 -2.8 24 24 N 3 6 30.06 1018 10 16 0.00 0.00
9:53 pm 21:53 Clear 62 16.7 29 -1.7 29 29 WNW 6 9 30.07 1018 10 16 0.00 0.00
10:53 pm 22:53 Clear 58 14.4 31 -0.6 36 36 NW 6 9 30.08 1019 10 16 0.00 0.00
11:53 pm 23:53 Clear 57 13.9 30 -1.1 36 36 NNW 6 9 30.07 1018 10 16 0.00 0.00

Powered by AerisWeather